Temperature
19 19 19 19 16 14 17 18 18 19 19 22 22 22 22 22 23 22 23 23 21 19 18 17 15 15 15 14 14 14 13 13 13 12 11 12 12 12 11 11 11 11 11 11 11 11 11 11 12
19 19 19 18 14 15 16 17 18 20 21 22 22 22 22 22 23 23 23 23 21 19 18 17 16 15 15 14 14 13 13 13 13 12 11 12 12 12 11 11 11 11 11 11 12 11 11 11 11
19 19 19 14 14 15 18 19 18 19 21 21 22 23 22 23 24 24 24 23 22 20 18 17 16 15 15 14 14 13 13 13 13 13 12 12 12 12 12 11 11 11 11 12 12 11 11 11 11
19 19 18 14 17 16 16 17 17 17 20 22 23 22 23 24 24 24 24 23 22 21 19 17 16 15 14 14 13 13 13 13 13 13 13 13 12 12 12 11 11 12 12 12 13 12 12 12 12
18 18 14 14 15 16 16 17 18 16 18 22 22 22 23 24 24 24 24 23 22 21 19 17 16 15 14 14 13 13 13 13 13 13 13 12 12 12 12 12 12 12 13 13 13 13 12 12 12
18 15 14 14 15 15 15 18 17 17 18 21 22 21 24 24 24 24 24 23 22 21 19 17 16 15 14 14 14 13 13 13 13 13 13 13 12 12 12 12 13 13 12 12 12 12 12 12 13
17 13 14 15 14 15 17 19 17 17 17 21 22 21 24 24 24 24 24 23 22 21 19 18 16 15 14 14 14 14 14 14 13 14 14 13 13 13 13 13 13 12 11 11 11 11 11 12 12
17 13 15 14 14 15 17 18 19 19 19 21 21 21 23 23 23 24 24 23 23 21 20 18 17 16 15 15 14 14 14 14 14 14 14 14 14 14 14 14 13 13 12 12 11 11 11 12 12
16 13 13 14 14 15 17 17 18 19 19 21 21 22 22 23 23 23 24 24 23 22 21 19 18 16 16 15 15 15 15 14 14 15 15 14 14 15 15 15 14 14 13 13 12 12 12 12 12
15 12 13 15 15 16 17 17 18 19 18 20 22 22 22 22 23 23 24 24 24 23 22 20 19 17 16 16 16 16 15 15 15 16 16 15 15 15 16 15 14 14 13 13 13 12 12 12 13
14 13 14 15 17 17 16 17 18 18 16 20 21 22 22 22 22 23 23 23 23 22 21 21 19 18 17 17 16 16 16 16 16 16 16 16 16 16 16 15 14 14 14 13 13 13 13 13 13
13 14 15 16 17 17 16 16 17 17 18 20 21 21 21 22 22 23 22 22 21 21 21 20 19 18 18 17 17 17 16 16 17 17 17 17 17 17 16 16 15 15 15 14 14 14 14 13 13
13 14 16 17 17 17 16 16 16 17 19 20 21 21 21 22 22 22 21 21 20 20 20 20 19 19 18 18 17 17 17 17 17 17 17 17 17 17 17 16 16 15 15 15 14 14 14 14 14
14 15 16 16 17 16 16 16 15 18 20 20 20 21 21 21 22 21 21 21 20 20 20 20 19 19 18 18 18 18 17 17 17 17 17 17 17 17 16 16 15 15 15 14 14 14 14 14 13
15 15 14 15 16 16 16 14 14 19 19 19 20 20 21 21 22 21 21 21 21 21 21 20 20 19 19 19 18 18 17 17 17 17 17 16 16 16 15 15 15 15 14 14 13 13 13 13 13
14 14 14 15 15 16 16 14 16 18 18 19 19 18 19 20 21 21 21 21 21 21 21 21 20 20 20 19 19 18 18 17 17 17 17 16 15 15 15 14 14 14 13 13 13 12 12 12 12
14 13 13 14 15 15 14 14 15 17 18 18 17 17 17 18 19 19 20 20 20 20 20 20 20 20 20 19 19 18 18 17 17 17 16 16 15 14 14 14 13 13 13 12 12 12 12 12 12
12 13 14 13 14 15 14 13 16 17 17 17 16 15 15 17 17 18 19 19 19 19 19 19 20 20 20 19 18 18 17 17 16 16 15 15 14 14 13 13 13 12 12 12 12 12 12 12 12
13 13 13 13 14 14 13 13 14 15 16 15 14 14 14 15 15 17 18 18 18 19 19 19 20 19 19 19 18 17 16 15 14 14 14 14 13 13 13 13 13 12 12 12 12 12 12 12 12
13 13 13 13 14 14 13 13 13 13 15 15 14 13 14 14 15 16 17 18 18 19 19 19 19 19 19 18 17 16 14 13 13 13 13 13 13 13 13 12 12 12 12 12 12 11 11 11 11
13 12 13 13 12 13 13 13 14 14 14 13 14 14 14 15 15 15 16 17 17 18 18 18 18 18 17 16 16 15 14 13 13 13 13 12 12 12 12 11 11 11 11 11 11 11 10 10 10
12 13 13 13 12 12 13 12 13 13 14 12 12 13 13 14 14 15 15 16 16 16 16 16 16 16 15 15 14 14 13 13 12 12 12 11 11 11 11 11 11 11 11 10 10 10 10 9 9
12 13 13 13 13 12 12 13 12 13 13 12 11 12 13 14 14 14 14 15 15 15 15 15 15 14 14 13 13 13 12 12 12 12 12 12 11 11 11 11 11 10 10 10 9 9 9 9 8
13 13 12 11 12 12 12 12 12 12 12 12 11 12 13 13 13 13 13 14 14 14 14 14 14 13 13 13 12 12 12 12 12 12 12 12 11 11 11 10 10 9 9 8 8 8 8 8 8
13 13 12 12 11 11 11 11 12 13 13 12 12 13 13 13 13 13 13 13 13 13 13 13 13 12 12 12 12 12 11 11 11 11 11 11 10 10 10 9 9 8 8 7 7 7 7 7 6
12 13 12 12 11 11 11 10 12 13 12 13 14 14 13 13 13 13 13 13 13 13 13 12 12 12 11 11 11 11 11 10 10 10 9 9 9 8 8 8 7 7 7 7 6 6 5 5 4
11 11 12 11 12 11 11 11 12 13 11 11 12 12 13 13 13 13 12 13 13 12 12 12 11 11 11 11 10 10 10 10 9 9 9 8 8 7 7 6 6 6 6 6 5 5 4 4 3
12 12 10 12 12 12 12 12 13 15 13 11 9 11 12 13 13 12 12 12 12 12 11 11 11 10 10 10 10 9 9 9 9 8 8 7 6 6 6 6 5 5 5 5 5 4 4 3 2
11 11 11 11 11 11 12 13 13 13 12 10 10 11 12 13 13 13 12 12 11 11 10 10 10 9 9 9 9 8 8 8 7 7 6 6 5 5 5 5 5 5 4 4 4 3 3 2 1
12 11 10 11 10 9 10 12 13 10 10 10 11 12 13 13 13 12 11 11 10 10 9 9 9 9 8 8 8 7 7 6 6 5 5 5 5 5 4 4 4 4 4 3 3 2 2 1 -0
Wind_Speed
13 7 3 4 6 5 3 5 4 5 6 5 5 4 3 3 4 6 2 7 4 6 11 15 15 15 16 15 13 12 10 9 8 7 6 7 7 5 3 1 0 1 2 2 4 6 5 2 2
6 4 6 5 5 1 5 5 5 5 5 6 3 2 3 4 4 3 1 7 5 7 12 12 15 15 16 15 13 12 10 9 8 7 6 8 7 6 4 2 2 2 2 3 5 6 6 2 1
4 6 5 5 4 4 5 3 5 8 9 5 3 3 4 4 3 3 4 8 6 7 12 13 15 15 16 15 13 11 10 9 8 8 7 8 8 7 5 3 4 4 3 4 6 5 5 3 2
5 6 6 5 2 5 5 6 7 10 9 4 3 6 5 4 3 3 5 9 9 8 11 13 15 16 16 14 13 12 11 10 9 8 7 7 8 8 6 5 4 5 5 6 7 8 6 6 5
5 5 6 3 5 6 6 7 6 6 7 5 2 4 6 2 2 3 7 9 10 9 9 11 15 17 16 15 14 13 12 11 9 8 6 6 8 8 6 5 6 7 7 8 8 9 10 10 9
5 5 3 3 6 7 7 5 6 5 6 6 3 4 6 1 1 4 7 8 9 9 8 10 15 17 17 16 16 14 13 12 10 9 6 5 6 7 7 7 8 8 9 9 10 10 11 12 13
4 4 3 3 5 7 4 6 7 7 7 6 3 4 7 3 2 4 6 7 6 6 6 7 11 14 16 16 16 14 13 13 12 11 9 7 5 6 8 9 9 10 11 11 11 11 12 12 13
5 4 2 3 4 7 5 8 6 5 8 7 3 4 7 6 1 6 5 5 5 5 6 5 8 10 11 13 15 15 14 13 12 11 11 10 8 7 8 8 9 11 12 13 13 13 13 13 14
4 3 4 6 6 6 5 7 7 5 6 7 4 4 5 5 3 5 4 3 4 5 6 6 6 8 10 11 12 13 13 13 12 11 11 11 10 9 8 10 10 12 13 13 14 14 15 14 14
4 4 8 6 6 5 6 6 6 8 9 7 6 4 3 1 3 7 8 8 8 7 7 7 7 7 8 9 9 9 9 9 9 8 8 10 9 9 9 10 11 13 13 14 15 16 16 14 10
7 8 6 6 6 5 5 6 4 5 8 7 9 11 7 4 7 9 10 8 7 6 6 8 9 7 6 5 6 6 8 8 8 9 9 10 9 8 7 6 7 8 10 10 12 13 11 10 9
6 7 6 6 3 3 5 6 7 8 11 11 10 9 8 8 11 12 9 5 3 5 7 8 9 8 7 6 4 5 5 5 6 10 11 8 4 4 4 4 6 7 8 8 8 8 10 11 12
6 6 5 7 9 8 7 9 8 11 14 13 10 10 10 10 10 6 4 4 6 8 9 9 10 10 9 8 6 5 4 6 8 10 11 10 5 6 5 4 6 7 9 7 6 6 8 9 8
8 7 7 8 9 5 8 13 8 14 11 10 10 11 10 8 6 4 5 7 8 9 9 9 11 12 11 10 9 8 6 7 8 8 11 12 9 5 6 6 5 6 8 9 7 8 8 8 8
5 3 7 8 8 6 4 12 11 12 7 8 9 9 6 5 4 4 5 6 7 8 8 9 10 11 12 12 11 9 6 7 5 7 11 13 11 7 5 6 7 8 9 9 7 7 6 9 9
6 3 6 8 5 5 3 13 17 5 4 5 6 6 6 7 8 7 7 6 7 7 8 7 8 9 12 11 10 8 5 6 5 7 9 10 11 10 5 7 9 7 7 5 7 7 7 10 9
5 5 5 8 4 3 5 11 13 2 3 4 1 3 5 7 9 9 9 8 8 8 8 7 4 5 8 9 6 6 5 5 3 4 5 6 9 10 6 8 9 6 5 6 8 7 7 10 11
8 6 5 8 4 2 6 13 20 5 3 3 3 3 5 8 8 7 9 8 8 8 8 8 8 5 1 2 2 1 1 2 2 2 4 6 7 8 6 7 8 6 6 7 6 9 9 10 12
8 8 7 8 4 4 9 14 19 12 5 5 5 4 5 6 5 8 9 9 9 10 11 11 12 10 6 4 3 2 1 2 2 3 4 5 5 6 4 5 7 6 6 9 9 9 10 10 8
6 5 5 7 3 4 8 12 12 8 5 6 8 7 5 6 7 9 9 9 10 10 11 14 14 13 9 5 4 3 4 4 4 6 8 9 8 8 5 6 5 6 6 8 8 8 8 8 6
6 7 6 6 9 6 7 10 9 5 2 5 7 6 6 6 7 6 7 8 9 11 11 12 13 13 12 9 6 6 5 5 6 7 8 8 10 12 9 10 8 8 7 6 8 7 8 9 7
8 7 5 5 5 6 4 7 9 5 2 4 6 6 6 6 6 5 6 8 9 8 8 10 12 13 12 11 12 12 9 7 6 5 6 8 8 10 11 8 9 8 7 8 8 8 7 8 8
6 5 6 5 4 5 3 5 10 4 6 8 8 8 7 7 7 7 7 7 7 7 8 9 12 13 12 12 11 11 10 6 5 6 9 9 9 8 11 9 9 9 7 8 8 8 8 6 6
5 6 5 4 3 5 6 7 9 6 8 8 9 9 8 8 7 6 6 7 8 8 9 9 12 12 11 12 12 12 11 10 10 10 10 8 6 7 11 10 9 9 8 9 8 8 9 7 8
5 5 1 2 1 7 4 5 10 8 6 9 14 12 10 9 7 7 7 7 8 8 8 9 11 11 10 12 12 11 10 10 10 9 9 9 8 6 11 10 10 10 10 9 9 9 9 9 9
10 9 7 7 6 5 3 7 9 5 5 7 10 11 10 9 7 7 7 7 8 8 8 9 10 10 9 10 10 10 9 7 7 7 7 7 7 7 10 10 10 11 11 11 10 8 9 9 9
10 8 6 5 2 4 6 7 9 2 6 3 10 12 11 10 9 8 7 7 8 8 8 8 9 9 9 8 9 9 8 8 7 7 7 6 6 8 9 9 10 10 11 11 11 9 11 10 9
8 11 6 5 4 5 7 6 5 7 4 3 9 12 10 9 8 8 7 7 7 7 7 8 9 9 8 8 8 8 8 8 7 7 8 8 8 8 9 9 10 10 10 11 11 11 10 10 10
6 6 6 6 5 5 4 7 5 7 7 7 9 8 9 9 9 8 7 7 7 7 7 8 8 8 7 7 7 8 8 7 7 7 7 7 7 8 9 10 10 11 11 12 12 11 11 13 13
8 10 9 7 6 6 3 7 6 7 6 6 8 7 7 8 7 8 8 8 7 7 7 7 7 7 7 7 7 8 7 7 7 7 7 7 8 8 8 9 9 10 11 11 11 11 12 13 14
Wind_Direction
337 360 57 52 54 54 234 249 251 294 291 292 302 278 242 237 230 261 315 155 165 154 171 191 186 179 171 167 164 163 170 179 191 199 195 190 176 171 173 156 218 223 207 277 304 320 297 276 247
346 24 49 56 86 99 262 254 264 263 266 296 276 282 285 260 232 260 257 182 177 162 168 185 186 182 174 170 167 170 180 189 199 209 209 198 180 169 178 198 247 268 255 268 286 302 295 265 309
38 49 71 68 110 192 247 267 277 293 286 264 261 250 248 247 227 232 211 168 157 161 165 177 185 185 175 174 172 178 189 197 207 214 227 213 190 175 181 202 239 253 258 262 268 276 302 267 276
44 39 54 67 250 235 252 285 293 308 310 268 224 281 258 237 222 212 161 149 152 164 166 176 186 183 178 179 179 185 194 201 210 220 238 219 198 188 191 204 228 235 246 251 258 255 270 266 254
52 66 47 5 280 273 271 276 304 311 291 293 212 268 272 233 281 151 149 154 159 165 171 182 190 187 185 186 188 192 198 203 211 222 224 216 207 200 197 208 227 235 241 247 252 256 255 258 262
45 61 62 299 286 288 275 271 314 304 286 284 229 246 263 329 221 169 164 165 166 166 172 188 198 195 193 194 196 198 202 207 213 216 210 211 215 208 208 218 233 244 248 251 256 259 263 263 264
101 103 185 245 281 290 269 317 321 304 299 283 257 236 284 303 227 149 166 168 165 166 169 188 204 203 201 201 202 204 208 212 217 219 219 217 222 229 235 235 241 251 256 256 256 259 265 268 270
124 114 182 238 250 270 289 325 302 281 284 282 226 237 285 334 136 126 140 166 175 177 186 190 202 205 205 206 208 210 214 218 222 228 225 214 214 224 241 252 253 258 264 263 262 263 267 272 277
98 98 215 225 220 254 295 331 306 277 287 292 247 241 279 309 125 139 149 165 193 198 196 196 200 205 205 206 213 217 221 224 229 239 230 214 217 227 239 251 254 260 269 272 271 272 274 277 282
121 182 225 220 207 242 297 300 291 311 319 306 307 286 319 345 189 208 212 207 203 201 200 199 204 206 204 209 212 217 222 228 232 233 228 220 222 231 241 253 262 269 276 280 280 280 280 283 286
173 205 236 248 236 250 279 283 267 280 289 266 283 301 314 245 229 234 236 226 220 211 205 204 210 208 201 205 205 212 219 225 231 230 228 225 227 239 254 270 282 284 283 279 276 279 279 277 272
186 238 239 261 253 247 263 280 277 235 244 258 270 291 291 256 235 235 252 277 265 227 222 209 209 211 207 206 207 212 212 218 223 227 227 221 222 228 236 239 248 253 253 253 253 253 254 256 258
199 250 253 251 268 262 265 257 255 252 254 274 291 289 282 268 255 269 306 296 251 242 235 219 208 211 209 209 215 213 214 219 224 227 228 221 216 227 226 225 235 239 241 240 243 245 249 253 254
207 228 270 286 281 270 260 269 255 258 257 285 295 296 299 289 278 270 267 264 255 248 242 225 214 212 208 212 216 220 217 221 223 227 231 226 226 226 234 243 243 242 242 244 245 247 253 258 257
170 223 289 278 275 270 270 287 250 258 268 287 310 320 338 9 13 350 331 311 301 285 268 240 223 210 209 215 217 220 215 215 220 228 231 230 229 231 236 249 252 249 244 244 249 252 253 261 258
150 186 261 276 272 263 198 271 279 290 247 303 344 11 49 50 41 24 10 359 345 330 312 276 244 211 210 215 215 218 207 211 227 231 233 233 234 234 233 250 260 255 245 239 248 253 255 260 261
158 192 226 278 260 252 210 261 281 47 354 320 350 45 53 47 28 13 6 3 355 350 348 347 309 240 217 214 215 217 213 222 239 247 252 253 251 246 241 256 266 267 256 252 257 261 249 268 272
180 184 214 247 277 253 249 261 277 280 296 274 159 112 69 57 28 6 10 11 13 13 17 21 23 10 291 176 178 218 276 286 295 285 274 270 264 257 246 260 272 279 276 274 263 267 266 268 276
163 175 218 250 270 288 266 269 277 288 262 216 172 151 98 68 30 24 24 20 25 24 27 30 34 27 43 68 79 73 354 341 337 329 311 304 294 286 264 275 285 286 280 282 281 278 280 280 277
157 183 241 282 295 255 283 280 273 276 244 199 172 164 131 93 55 36 28 27 31 31 31 38 38 36 38 54 69 79 78 51 41 34 33 28 27 21 15 355 337 327 315 311 307 298 291 287 270
196 203 231 274 330 333 323 300 294 300 80 119 136 146 140 124 106 75 51 41 38 37 34 45 43 43 41 44 56 55 52 44 33 28 31 29 38 38 33 26 18 7 2 346 334 327 315 310 299
217 213 221 271 319 296 355 307 290 280 197 155 148 151 152 141 128 112 86 62 48 40 41 50 51 50 45 48 62 66 66 59 32 24 26 26 28 30 23 16 11 4 0 354 348 349 338 332 327
187 187 199 226 220 272 276 253 280 274 225 211 191 185 180 167 150 128 101 83 62 52 54 56 59 54 48 53 59 68 65 56 39 30 28 24 18 20 17 10 5 358 352 344 340 339 335 330 322
128 96 81 59 103 271 229 205 278 242 218 203 191 191 188 177 160 131 105 90 72 62 62 62 67 57 49 56 56 59 57 45 39 28 22 14 7 7 10 2 359 352 348 341 335 328 323 316 310
147 131 133 262 250 249 222 208 251 253 226 199 185 184 185 182 165 145 122 99 87 77 71 68 72 61 52 58 56 53 52 47 41 26 16 11 4 358 359 356 352 349 343 337 334 327 321 311 312
178 168 175 194 222 273 215 232 254 274 282 233 177 165 168 178 174 159 137 117 105 94 81 76 75 67 57 61 59 52 50 48 38 26 17 11 0 348 350 348 346 343 339 338 334 327 321 319 314
161 194 177 136 203 265 268 274 300 282 14 126 155 158 173 178 176 162 134 119 113 100 85 82 82 72 60 61 66 54 46 42 32 21 16 6 355 351 346 340 341 339 336 336 334 328 323 323 322
158 151 139 163 200 255 285 281 270 311 322 180 177 174 174 168 168 155 132 121 108 99 89 78 76 74 65 59 57 56 40 33 24 18 10 359 349 345 339 340 338 337 335 334 331 329 325 332 329
124 143 150 153 164 178 274 281 244 272 275 219 202 185 171 170 169 154 133 122 109 95 84 76 70 69 61 57 52 45 33 23 17 13 1 350 343 340 341 339 338 337 335 333 330 327 333 330 323
158 166 150 162 202 179 189 272 298 297 278 197 173 170 173 174 161 141 134 125 110 97 85 77 69 63 56 53 49 38 24 14 10 2 351 345 342 338 337 335 334 334 333 327 322 325 330 321 320
Height
1524 1522 1520 1520 1524 1535 1533 1525 1518 1516 1512 1508 1507 1505 1504 1504 1506 1509 1503 1499 1498 1498 1498 1499 1500 1502 1504 1506 1506 1507 1507 1506 1506 1506 1507 1508 1509 1509 1509 1509 1509 1509 1509 1508 1508 1509 1511 1511 1511
1524 1522 1521 1521 1531 1541 1535 1522 1518 1513 1510 1507 1505 1504 1503 1502 1501 1501 1500 1499 1498 1498 1498 1499 1500 1502 1504 1505 1506 1506 1506 1505 1505 1505 1507 1508 1508 1508 1508 1508 1508 1508 1507 1507 1507 1508 1509 1509 1509
1523 1522 1522 1525 1534 1538 1528 1518 1516 1511 1507 1506 1504 1503 1502 1500 1500 1500 1500 1499 1498 1498 1498 1498 1500 1502 1503 1505 1505 1505 1505 1504 1504 1504 1506 1507 1508 1508 1508 1507 1507 1506 1506 1506 1506 1506 1507 1507 1507
1524 1523 1523 1531 1531 1529 1524 1518 1514 1511 1505 1504 1503 1502 1501 1500 1499 1499 1499 1498 1497 1497 1497 1498 1500 1501 1503 1504 1505 1504 1504 1503 1503 1504 1505 1506 1507 1507 1507 1506 1506 1505 1504 1504 1505 1505 1506 1506 1505
1524 1523 1530 1537 1532 1525 1520 1516 1513 1512 1507 1504 1503 1501 1499 1498 1498 1498 1498 1498 1497 1497 1497 1498 1499 1501 1502 1503 1503 1503 1503 1502 1503 1503 1504 1505 1506 1506 1506 1505 1505 1504 1504 1504 1504 1504 1504 1504 1504
1525 1525 1537 1539 1532 1525 1518 1515 1513 1511 1507 1504 1502 1500 1497 1497 1497 1497 1498 1498 1497 1497 1497 1498 1499 1500 1501 1502 1502 1502 1502 1502 1502 1502 1503 1504 1505 1505 1504 1504 1504 1503 1503 1503 1503 1503 1503 1503 1502
1526 1529 1534 1533 1532 1525 1517 1514 1511 1510 1506 1504 1502 1500 1496 1497 1496 1496 1497 1497 1497 1497 1497 1498 1499 1500 1501 1501 1501 1501 1501 1501 1501 1501 1502 1503 1503 1503 1503 1503 1503 1503 1503 1503 1502 1502 1502 1501 1501
1525 1528 1530 1533 1530 1524 1515 1513 1511 1509 1505 1503 1501 1499 1497 1497 1496 1495 1496 1496 1496 1496 1497 1497 1498 1499 1500 1500 1500 1500 1500 1500 1500 1500 1501 1501 1502 1502 1502 1502 1502 1502 1502 1502 1502 1501 1501 1500 1499
1524 1531 1532 1528 1526 1520 1514 1512 1510 1508 1505 1502 1500 1499 1498 1497 1495 1494 1494 1495 1495 1495 1496 1496 1497 1498 1499 1499 1499 1499 1498 1499 1499 1500 1500 1500 1501 1501 1501 1501 1500 1500 1500 1500 1500 1499 1499 1498 1497
1522 1530 1525 1519 1517 1515 1512 1512 1510 1507 1504 1501 1498 1498 1496 1495 1494 1493 1493 1493 1494 1494 1495 1495 1496 1497 1497 1498 1498 1498 1498 1498 1498 1499 1499 1499 1500 1500 1500 1499 1499 1499 1499 1498 1498 1497 1496 1495 1494
1519 1522 1517 1514 1513 1512 1511 1510 1509 1508 1504 1500 1498 1496 1495 1493 1492 1492 1492 1492 1492 1493 1493 1494 1495 1495 1496 1497 1497 1497 1497 1497 1497 1498 1498 1498 1499 1499 1498 1498 1498 1497 1497 1496 1496 1495 1494 1492 1491
1517 1515 1514 1512 1511 1511 1510 1508 1507 1504 1501 1498 1497 1495 1493 1491 1490 1490 1490 1491 1491 1491 1492 1492 1493 1493 1494 1495 1495 1496 1496 1496 1496 1497 1497 1497 1497 1497 1497 1496 1496 1496 1495 1494 1493 1492 1491 1490 1488
1514 1512 1510 1510 1509 1508 1507 1505 1503 1497 1496 1495 1493 1492 1491 1489 1488 1488 1488 1488 1488 1488 1489 1489 1490 1491 1491 1492 1493 1493 1494 1494 1495 1495 1496 1496 1496 1496 1495 1495 1494 1493 1493 1492 1491 1489 1488 1486 1485
1509 1510 1509 1508 1507 1505 1504 1499 1498 1488 1492 1491 1490 1488 1487 1486 1485 1485 1485 1485 1486 1486 1486 1486 1486 1487 1488 1489 1490 1490 1491 1492 1493 1493 1494 1494 1494 1494 1493 1492 1491 1491 1490 1489 1487 1485 1484 1481 1480
1507 1509 1509 1506 1504 1502 1501 1497 1489 1484 1487 1486 1486 1484 1482 1482 1482 1482 1482 1482 1482 1482 1482 1482 1483 1483 1484 1486 1487 1487 1488 1489 1490 1491 1492 1492 1492 1492 1491 1489 1488 1488 1486 1485 1482 1480 1478 1476 1473
1506 1510 1513 1506 1503 1500 1505 1501 1482 1485 1484 1483 1483 1481 1479 1479 1479 1479 1479 1479 1479 1479 1479 1478 1478 1479 1480 1482 1484 1485 1485 1486 1487 1488 1489 1489 1489 1489 1488 1486 1485 1483 1482 1479 1477 1475 1472 1470 1467
1507 1513 1513 1508 1501 1500 1502 1499 1481 1484 1482 1482 1482 1481 1479 1478 1478 1478 1478 1478 1478 1477 1476 1475 1474 1474 1476 1478 1480 1482 1483 1484 1485 1485 1485 1485 1485 1485 1483 1482 1480 1479 1476 1474 1472 1469 1467 1463 1460
1510 1511 1510 1509 1501 1500 1501 1496 1481 1481 1482 1480 1480 1481 1480 1478 1478 1478 1478 1478 1477 1476 1475 1474 1472 1472 1473 1475 1476 1478 1479 1481 1481 1482 1482 1481 1480 1480 1478 1477 1476 1474 1471 1469 1467 1464 1461 1458 1455
1502 1506 1508 1505 1499 1500 1498 1493 1482 1476 1479 1478 1479 1480 1480 1478 1479 1479 1479 1479 1479 1478 1476 1474 1473 1473 1473 1474 1475 1475 1477 1478 1478 1478 1477 1476 1476 1475 1474 1472 1471 1469 1466 1464 1462 1459 1456 1453 1450
1500 1505 1506 1503 1498 1498 1496 1490 1479 1474 1474 1474 1476 1479 1480 1480 1480 1480 1481 1481 1480 1478 1477 1475 1475 1475 1475 1475 1475 1475 1476 1476 1476 1476 1475 1474 1473 1472 1471 1469 1467 1464 1462 1459 1457 1454 1450 1447 1446
1501 1504 1505 1505 1501 1496 1497 1490 1481 1473 1473 1474 1476 1478 1480 1480 1481 1481 1481 1481 1480 1479 1478 1477 1477 1477 1477 1476 1476 1476 1476 1477 1476 1475 1474 1473 1472 1471 1469 1467 1465 1462 1459 1456 1454 1450 1446 1442 1440
1500 1498 1501 1503 1508 1509 1503 1507 1486 1476 1474 1475 1476 1478 1480 1481 1481 1481 1481 1481 1480 1480 1480 1480 1480 1479 1478 1478 1477 1477 1477 1477 1477 1476 1475 1474 1472 1470 1468 1466 1463 1461 1457 1454 1451 1448 1444 1439 1435
1494 1494 1498 1501 1506 1510 1505 1506 1489 1477 1475 1474 1474 1476 1479 1481 1482 1482 1482 1481 1482 1482 1482 1482 1482 1481 1481 1480 1480 1479 1478 1478 1478 1477 1476 1474 1472 1469 1467 1464 1461 1458 1454 1451 1447 1444 1440 1436 1431
1490 1495 1500 1505 1507 1513 1503 1506 1492 1478 1470 1468 1471 1474 1477 1480 1482 1482 1482 1482 1482 1483 1483 1484 1484 1483 1483 1482 1481 1480 1480 1479 1478 1476 1474 1472 1470 1467 1464 1461 1457 1454 1450 1446 1442 1439 1435 1431 1426
1491 1498 1510 1511 1515 1511 1498 1500 1485 1465 1462 1462 1465 1470 1475 1479 1481 1482 1482 1482 1483 1483 1484 1484 1484 1484 1484 1483 1482 1481 1480 1479 1477 1475 1472 1469 1466 1463 1459 1456 1452 1448 1444 1440 1436 1432 1428 1424 1419
1488 1494 1507 1514 1514 1507 1497 1498 1475 1461 1459 1458 1461 1467 1473 1477 1479 1481 1482 1482 1482 1483 1484 1484 1484 1484 1484 1483 1482 1481 1480 1478 1476 1473 1471 1467 1464 1460 1456 1453 1448 1444 1440 1435 1430 1425 1421 1417 1412
1486 1491 1491 1501 1503 1506 1497 1486 1469 1458 1458 1457 1460 1465 1470 1474 1477 1479 1480 1481 1482 1482 1483 1484 1484 1484 1484 1483 1482 1480 1479 1477 1475 1472 1469 1465 1461 1457 1453 1449 1444 1440 1435 1430 1425 1420 1415 1410 1406
1474 1481 1495 1497 1502 1504 1494 1486 1475 1460 1458 1461 1462 1464 1468 1472 1476 1478 1479 1480 1481 1482 1483 1483 1483 1483 1483 1482 1481 1479 1477 1475 1472 1469 1465 1462 1458 1453 1449 1445 1440 1435 1430 1425 1420 1415 1410 1405 1400
1477 1481 1483 1491 1496 1502 1499 1486 1466 1462 1459 1460 1462 1465 1468 1471 1474 1476 1477 1479 1480 1481 1482 1482 1482 1482 1482 1481 1479 1478 1475 1473 1469 1465 1461 1457 1453 1449 1445 1440 1436 1431 1426 1421 1416 1411 1405 1400 1394
1465 1472 1479 1489 1495 1499 1500 1487 1461 1460 1457 1457 1462 1466 1468 1471 1473 1475 1476 1477 1479 1480 1480 1481 1481 1481 1480 1479 1477 1475 1472 1469 1465 1461 1457 1453 1449 1445 1441 1436 1432 1427 1422 1417 1411 1405 1399 1394 1388